Wind_Speed
4 3 3 3 4 5 4 4 5 5 6 6 6 6 6 6 5 4 4 4 3 2 1 1 1 0 0 0 2 2 3 3 2 2 1 1 0 0 1 1 0 1 2
4 3 3 3 4 5 5 4 4 5 4 5 5 5 5 5 5 5 4 3 2 1 1 1 1 1 0 1 2 2 3 3 2 1 1 0 0 0 1 1 1 1 2
5 4 4 4 5 5 5 5 5 4 4 4 5 4 4 4 5 4 3 3 2 1 1 1 1 1 1 2 2 2 2 2 1 1 1 1 1 1 1 1 2 2 2
6 5 4 4 4 4 5 4 4 5 5 5 5 5 5 5 4 4 3 2 1 1 1 1 1 2 2 2 2 3 2 1 1 1 1 1 1 1 1 2 3 2 1
6 5 5 4 3 4 5 5 5 5 5 5 5 5 5 5 5 4 2 2 2 2 1 1 1 2 1 1 2 2 1 1 1 1 1 1 1 1 1 2 2 2 2
6 5 5 5 4 4 5 5 5 5 5 5 4 4 4 3 4 3 2 1 1 1 0 0 1 1 1 1 2 1 1 1 1 1 1 1 1 1 1 1 1 1 2
7 7 5 4 4 4 4 5 5 5 5 4 4 4 3 2 2 2 2 1 1 1 1 1 1 1 1 1 1 1 1 1 1 1 1 1 1 1 1 2 2 2 2
8 8 7 5 4 5 5 5 5 5 5 4 4 4 3 2 2 2 2 1 1 1 1 1 1 1 1 1 1 1 2 2 2 1 1 1 1 1 1 1 2 2 3
9 8 8 7 6 6 6 6 5 5 5 4 4 3 3 2 2 2 2 1 1 2 1 1 2 2 1 1 1 2 2 2 2 2 2 2 1 1 1 2 3 3 3
10 9 9 9 8 7 7 7 6 6 5 5 4 3 3 2 2 2 2 1 2 2 1 1 2 2 2 2 2 2 2 2 2 2 2 2 2 2 2 3 3 3 4
10 10 10 10 9 9 8 8 6 6 5 4 3 3 2 1 2 2 2 2 2 1 1 1 1 1 1 2 2 3 3 3 3 3 2 2 2 3 3 3 4 4 4
10 10 10 10 9 8 8 8 6 6 5 4 3 3 2 2 2 2 1 2 1 1 1 1 1 1 1 1 2 2 3 3 3 3 3 3 3 3 3 4 5 5 5
11 10 10 9 9 8 7 7 6 6 5 4 4 3 3 2 2 2 2 2 2 1 1 1 1 1 1 1 1 2 3 3 3 4 4 4 4 5 5 5 5 6 6
11 11 11 10 10 9 8 7 6 6 5 4 4 3 3 3 2 2 1 2 1 1 1 1 1 1 1 1 2 2 2 2 4 4 4 5 5 5 5 5 6 6 6
10 10 10 10 9 8 8 7 7 6 6 5 5 4 3 3 2 1 1 2 1 1 1 1 1 2 2 2 3 3 2 2 2 4 5 5 5 5 5 6 6 6 6
10 9 10 10 9 9 8 8 8 7 6 6 5 4 3 3 2 1 1 1 2 2 2 2 2 3 3 3 3 3 3 3 3 3 4 5 5 6 6 7 7 7 7
9 9 9 9 8 8 8 8 8 7 6 6 5 4 4 3 2 1 1 1 2 2 2 3 3 4 4 4 3 4 3 3 3 4 4 5 5 6 7 7 8 7 7
8 8 8 8 8 8 7 7 8 7 6 5 5 5 4 3 3 2 2 1 2 2 3 4 4 4 4 4 4 4 4 5 5 5 5 6 6 6 7 8 8 8 8
7 7 7 8 8 7 6 6 7 6 6 5 5 4 4 4 4 3 2 1 1 2 3 4 4 4 4 4 4 4 5 5 6 6 6 6 6 7 7 8 8 8 9
6 6 6 6 6 6 5 6 5 6 5 5 4 4 4 4 3 3 3 2 2 3 3 3 4 4 4 4 5 5 5 6 7 7 7 7 8 8 8 8 8 8 9
5 5 6 6 6 6 5 5 5 5 5 5 5 4 4 4 4 3 3 3 4 5 4 4 5 5 6 6 6 6 6 7 7 8 8 8 9 9 9 9 9 10 10
4 4 5 5 6 6 5 5 5 5 5 5 5 4 5 4 4 4 4 4 5 6 6 5 6 6 6 7 7 7 7 8 8 8 9 9 9 10 10 10 11 11 10
3 4 4 4 5 5 5 4 4 5 5 6 6 6 5 4 4 4 5 5 6 6 7 7 6 7 8 8 8 8 7 7 9 9 10 10 10 11 12 12 12 12 13
1 2 3 4 4 5 5 4 4 5 5 6 6 6 5 5 5 6 6 6 7 7 7 7 7 8 8 8 9 9 9 10 10 10 11 12 12 12 13 14 14 13 13
2 2 2 3 4 4 4 4 4 5 6 6 7 7 6 6 6 6 7 7 8 8 8 8 8 9 9 9 10 10 11 11 12 12 12 13 13 14 14 15 15 15 15
3 4 3 4 4 4 5 5 5 5 6 7 7 7 7 7 6 6 7 7 8 9 9 8 9 9 11 11 11 12 12 13 13 14 14 14 14 15 15 16 16 16 16
Wind_Direction
85 92 94 88 105 109 107 103 98 93 96 102 105 113 122 130 136 134 130 133 130 115 113 172 207 174 56 232 205 224 228 220 216 233 224 221 230 22 33 10 248 238 226
70 73 77 94 114 106 105 108 107 104 104 111 114 122 130 135 140 139 135 128 121 108 127 182 203 250 272 231 223 243 253 224 218 250 250 246 359 356 10 12 332 253 251
61 72 81 97 118 111 104 106 110 115 118 116 117 130 138 142 145 146 147 138 141 121 169 189 222 232 234 230 236 250 236 231 233 269 276 257 290 323 331 336 319 272 268
66 79 87 96 104 110 112 114 116 116 120 122 116 123 136 138 143 155 166 177 198 204 170 158 194 223 251 248 237 234 230 261 248 268 277 276 274 302 317 329 334 326 286
66 77 85 91 100 101 118 120 118 117 115 123 119 116 123 127 128 136 163 191 187 179 162 132 175 199 213 220 230 238 253 265 212 235 268 290 292 301 312 313 321 322 312
68 75 88 93 98 104 122 126 121 116 117 124 122 120 122 128 139 135 146 180 189 197 176 159 201 201 182 203 228 228 243 231 219 250 275 289 302 312 307 308 295 297 292
69 76 86 86 93 113 118 120 120 116 109 114 122 126 125 128 136 149 124 105 129 167 169 117 167 193 201 222 234 248 246 253 242 255 274 212 259 275 305 320 320 303 304
73 73 76 78 89 106 113 112 111 113 109 114 126 137 137 138 130 126 125 135 152 166 181 212 208 147 155 223 227 237 258 266 283 283 211 203 269 283 297 325 323 307 311
66 65 68 72 91 103 104 106 109 105 102 104 118 135 143 143 139 138 149 177 189 192 167 154 208 192 210 239 229 228 244 269 275 252 236 247 273 280 294 310 324 316 313
68 69 68 77 94 105 108 108 110 105 102 95 98 102 125 140 152 160 172 170 151 145 137 174 200 204 226 234 227 231 246 273 293 294 278 285 299 287 297 312 309 305 309
68 67 65 72 85 96 103 104 107 106 106 103 92 91 97 122 155 187 176 161 164 146 160 194 197 216 240 229 230 241 266 286 288 288 287 291 298 284 288 296 294 292 295
66 65 65 70 78 88 94 99 103 108 105 103 103 101 108 123 136 141 148 150 171 176 189 214 199 218 224 249 263 263 266 267 271 275 271 278 278 276 284 289 292 291 293
64 64 66 70 75 80 87 91 93 99 104 104 103 98 99 112 132 113 122 143 139 169 211 228 233 261 287 295 295 278 275 264 267 275 271 274 266 273 281 286 287 292 294
64 65 66 69 75 80 84 85 88 93 94 95 97 95 87 96 113 110 127 155 171 184 214 252 267 300 297 304 320 324 304 277 273 267 270 275 264 265 277 283 285 290 292
65 67 65 67 72 76 78 77 79 83 83 83 83 86 78 72 82 111 175 193 194 204 221 252 269 294 297 308 306 311 306 316 295 268 264 271 270 271 276 282 283 287 288
64 65 66 67 68 69 72 73 73 72 73 75 77 73 62 62 76 74 202 214 228 234 237 248 266 279 297 310 304 306 293 297 291 275 267 271 275 278 278 282 280 280 281
62 63 65 66 66 67 67 67 63 63 65 64 62 49 45 55 55 32 313 270 254 246 247 263 271 281 291 297 293 297 287 297 297 285 286 286 282 281 280 279 277 279 282
61 64 63 63 64 65 65 63 58 56 55 56 52 42 43 40 34 22 3 326 303 287 278 280 283 286 293 289 296 292 289 291 298 297 298 294 288 284 286 282 279 281 285
61 65 64 61 61 60 60 58 55 51 47 42 42 40 33 32 29 25 8 343 329 315 303 295 289 287 291 287 291 285 286 289 290 291 293 291 290 290 290 284 281 283 285
59 63 64 59 56 55 52 47 44 46 42 37 36 30 23 14 9 3 350 337 318 313 312 306 298 292 288 289 291 293 288 286 285 288 291 294 291 289 289 284 286 287 287
52 57 58 54 52 47 40 34 36 38 36 33 31 21 7 356 349 342 334 321 308 306 305 297 289 290 289 288 293 298 296 293 293 291 292 293 288 285 290 287 288 288 288
47 51 50 46 42 38 31 28 32 29 25 19 19 17 7 357 344 333 324 316 310 307 303 295 295 292 291 292 294 293 292 297 295 291 292 293 289 287 288 289 290 289 289
42 42 36 29 27 20 15 15 18 15 10 8 7 3 357 352 345 332 322 318 313 309 304 299 297 297 294 291 291 292 288 290 294 295 291 291 291 289 286 287 290 289 290
21 25 12 5 5 1 358 358 359 358 357 358 352 347 342 341 337 330 323 319 316 316 310 302 301 303 300 300 300 297 294 290 290 291 290 290 288 287 286 284 286 287 289
325 341 357 358 355 351 348 343 338 339 340 341 340 338 336 334 334 325 320 316 316 314 315 311 304 302 301 301 302 302 301 298 293 289 288 288 288 287 284 282 284 284 283
338 341 343 343 344 341 337 332 327 325 326 328 329 328 327 325 324 319 317 317 314 319 317 312 309 308 305 304 304 302 299 298 295 292 291 290 287 287 285 284 282 280 279
Height
5876 5876 5876 5876 5876 5876 5877 5877 5877 5877 5877 5878 5878 5878 5879 5881 5882 5884 5885 5886 5887 5887 5888 5888 5888 5889 5890 5890 5890 5891 5891 5891 5892 5892 5893 5893 5893 5893 5894 5894 5894 5894 5894
5876 5876 5876 5876 5876 5877 5877 5877 5878 5878 5879 5879 5880 5880 5881 5882 5883 5884 5886 5887 5887 5888 5888 5888 5889 5890 5890 5890 5891 5891 5891 5892 5892 5892 5893 5893 5894 5894 5894 5894 5894 5894 5894
5877 5876 5876 5876 5876 5877 5877 5878 5879 5879 5879 5880 5881 5882 5882 5883 5884 5885 5886 5887 5888 5888 5888 5888 5889 5890 5890 5891 5891 5891 5891 5892 5892 5893 5893 5893 5894 5894 5894 5894 5894 5894 5894
5877 5877 5877 5877 5877 5877 5878 5879 5879 5880 5880 5881 5882 5883 5883 5884 5885 5886 5886 5887 5888 5888 5888 5889 5890 5890 5890 5891 5891 5891 5892 5892 5892 5893 5893 5893 5893 5894 5894 5894 5894 5894 5894
5878 5878 5877 5877 5878 5878 5878 5879 5880 5880 5881 5882 5883 5884 5885 5885 5885 5886 5887 5887 5887 5888 5889 5889 5890 5890 5890 5891 5892 5892 5892 5893 5893 5893 5893 5893 5893 5894 5894 5894 5894 5893 5893
5879 5878 5878 5878 5878 5878 5879 5879 5880 5881 5882 5882 5883 5884 5885 5886 5886 5887 5888 5887 5887 5888 5889 5890 5890 5891 5891 5891 5892 5893 5893 5893 5893 5893 5893 5893 5893 5893 5894 5894 5894 5893 5893
5880 5879 5878 5878 5878 5879 5879 5880 5880 5881 5882 5883 5884 5885 5885 5886 5887 5887 5888 5888 5888 5889 5890 5890 5891 5891 5891 5892 5892 5893 5893 5893 5893 5893 5893 5893 5893 5893 5893 5893 5893 5893 5893
5880 5879 5879 5878 5878 5878 5879 5880 5881 5882 5883 5884 5885 5885 5886 5886 5887 5887 5888 5888 5889 5889 5890 5891 5891 5891 5892 5892 5892 5893 5893 5893 5893 5893 5893 5893 5893 5893 5893 5893 5893 5893 5893
5881 5880 5879 5877 5877 5878 5880 5881 5882 5883 5884 5884 5885 5885 5886 5887 5887 5888 5888 5889 5889 5890 5890 5891 5891 5892 5892 5892 5892 5892 5893 5893 5892 5893 5893 5893 5893 5893 5893 5892 5892 5892 5892
5883 5882 5880 5878 5877 5879 5881 5882 5883 5884 5884 5885 5886 5886 5887 5887 5888 5888 5889 5889 5889 5890 5891 5891 5891 5891 5892 5892 5892 5892 5892 5892 5892 5892 5892 5892 5892 5892 5892 5892 5892 5892 5891
5885 5884 5883 5881 5881 5881 5882 5883 5884 5885 5885 5886 5887 5887 5887 5888 5888 5889 5889 5889 5890 5890 5891 5891 5891 5891 5891 5891 5891 5891 5891 5891 5891 5891 5892 5892 5892 5892 5892 5892 5891 5891 5891
5887 5886 5885 5884 5884 5884 5884 5884 5885 5886 5886 5887 5887 5888 5888 5888 5888 5889 5889 5889 5890 5890 5890 5891 5891 5891 5891 5891 5891 5891 5891 5890 5890 5891 5891 5891 5891 5891 5891 5891 5891 5890 5890
5889 5888 5887 5886 5886 5886 5886 5886 5886 5887 5887 5887 5888 5888 5888 5888 5888 5889 5889 5889 5890 5890 5890 5890 5891 5890 5890 5890 5890 5890 5890 5890 5890 5890 5890 5890 5890 5890 5890 5890 5890 5889 5889
5891 5890 5890 5889 5888 5888 5888 5888 5888 5888 5888 5888 5888 5889 5889 5889 5889 5889 5889 5890 5890 5890 5890 5890 5890 5890 5889 5889 5889 5889 5889 5889 5889 5889 5889 5889 5889 5889 5889 5889 5888 5888 5888
5894 5893 5892 5891 5890 5890 5890 5890 5890 5890 5890 5889 5889 5889 5890 5889 5889 5889 5889 5890 5890 5890 5890 5890 5890 5890 5889 5889 5889 5889 5889 5888 5888 5888 5888 5888 5888 5888 5888 5887 5887 5887 5886
5896 5895 5894 5893 5893 5892 5892 5892 5892 5891 5891 5891 5890 5890 5890 5889 5889 5889 5889 5889 5890 5890 5890 5890 5890 5889 5889 5889 5889 5889 5888 5888 5888 5887 5887 5887 5887 5887 5886 5886 5886 5885 5885
5897 5896 5896 5895 5895 5894 5894 5893 5893 5892 5892 5891 5891 5890 5890 5890 5889 5889 5889 5889 5889 5889 5889 5889 5889 5889 5889 5888 5888 5888 5888 5887 5887 5887 5886 5886 5885 5885 5885 5884 5884 5884 5883
5899 5898 5897 5897 5896 5896 5895 5895 5894 5893 5893 5892 5892 5891 5891 5890 5890 5889 5889 5889 5889 5889 5889 5889 5889 5888 5888 5888 5888 5887 5887 5887 5886 5886 5885 5885 5884 5884 5883 5883 5882 5882 5881
5900 5899 5899 5898 5898 5897 5897 5896 5895 5894 5894 5893 5892 5892 5891 5891 5890 5889 5889 5889 5889 5889 5888 5888 5888 5888 5887 5887 5887 5887 5886 5886 5885 5885 5884 5884 5883 5882 5882 5881 5881 5880 5879
5901 5901 5900 5899 5899 5898 5898 5897 5896 5896 5895 5894 5893 5893 5892 5891 5890 5890 5889 5889 5889 5889 5888 5888 5887 5887 5887 5886 5886 5885 5885 5884 5884 5883 5883 5882 5881 5881 5880 5879 5879 5878 5877
5903 5902 5901 5900 5900 5899 5898 5898 5897 5896 5896 5895 5894 5893 5892 5891 5890 5890 5889 5889 5888 5888 5888 5887 5887 5886 5886 5885 5885 5884 5883 5883 5882 5881 5881 5880 5879 5879 5878 5877 5877 5876 5875
5903 5903 5902 5901 5900 5900 5899 5898 5898 5897 5896 5896 5895 5894 5892 5891 5890 5890 5889 5888 5888 5887 5886 5886 5885 5885 5884 5884 5883 5883 5882 5882 5880 5879 5878 5878 5877 5877 5876 5875 5874 5873 5873
5904 5903 5902 5902 5901 5900 5899 5899 5898 5897 5897 5896 5895 5894 5892 5891 5890 5889 5888 5888 5887 5886 5885 5885 5884 5883 5883 5882 5881 5881 5880 5880 5879 5878 5877 5876 5875 5874 5873 5872 5871 5871 5870
5903 5903 5902 5902 5901 5900 5900 5899 5898 5897 5896 5895 5894 5893 5892 5891 5890 5889 5888 5887 5886 5885 5884 5883 5882 5882 5881 5880 5879 5879 5878 5877 5876 5875 5874 5873 5872 5871 5870 5869 5869 5868 5867
5903 5903 5902 5901 5901 5900 5899 5898 5898 5897 5895 5894 5893 5892 5891 5890 5889 5888 5887 5886 5885 5883 5882 5881 5880 5880 5879 5878 5877 5876 5875 5874 5872 5872 5871 5870 5869 5868 5867 5866 5865 5864 5863
5903 5902 5901 5901 5900 5899 5898 5897 5896 5896 5894 5893 5892 5891 5890 5889 5888 5887 5885 5884 5883 5881 5880 5879 5878 5877 5876 5875 5874 5873 5872 5871 5869 5868 5868 5867 5865 5864 5863 5862 5861 5860 5859